"Time","Value","Approval","myLocation"
"2023-05-06 00:00",3.01143725904738,"Approved","OW406"
"2023-05-06 01:00",3.01043788086059,"Approved","OW406"
"2023-05-06 02:00",3.0094385026738,"Approved","OW406"
"2023-05-06 03:00",3.009439124487,"Approved","OW406"
"2023-05-06 04:00",3.00843974630021,"Approved","OW406"
"2023-05-06 05:00",3.00844036811342,"Approved","OW406"
"2023-05-06 06:00",3.00744098992663,"Approved","OW406"
"2023-05-06 07:00",3.00644161173983,"Approved","OW406"
"2023-05-06 08:00",3.00644223355304,"Approved","OW406"
"2023-05-06 09:00",3.00544285536625,"Approved","OW406"
"2023-05-06 10:00",3.00544347717946,"Approved","OW406"
"2023-05-06 11:00",3.00344409899266,"Approved","OW406"
"2023-05-06 12:00",3.00344472080587,"Approved","OW406"
"2023-05-06 13:00",3.00344534261908,"Approved","OW406"
"2023-05-06 14:00",3.00244596443228,"Approved","OW406"
"2023-05-06 15:00",3.00244658624549,"Approved","OW406"
"2023-05-06 16:00",3.0014472080587,"Approved","OW406"
"2023-05-06 17:00",3.00044782987191,"Approved","OW406"
"2023-05-06 18:00",2.99944845168511,"Approved","OW406"
"2023-05-06 19:00",2.99944907349832,"Approved","OW406"
"2023-05-06 20:00",2.99944969531153,"Approved","OW406"
"2023-05-06 21:00",2.99845031712474,"Approved","OW406"
"2023-05-06 22:00",2.99745093893794,"Approved","OW406"
"2023-05-06 23:00",2.99745156075115,"Approved","OW406"
"2023-05-07 00:00",2.99645218256436,"Approved","OW406"
"2023-05-07 01:00",2.99545280437757,"Approved","OW406"
"2023-05-07 02:00",2.99445342619077,"Approved","OW406"
"2023-05-07 03:00",2.99445404800398,"Approved","OW406"
"2023-05-07 04:00",2.99345466981719,"Approved","OW406"
"2023-05-07 05:00",2.99245529163039,"Approved","OW406"
"2023-05-07 06:00",2.9924559134436,"Approved","OW406"
"2023-05-07 07:00",2.99145653525681,"Approved","OW406"
"2023-05-07 08:00",2.99145715707002,"Approved","OW406"
"2023-05-07 09:00",2.99045777888322,"Approved","OW406"
"2023-05-07 10:00",2.99045840069643,"Approved","OW406"
"2023-05-07 11:00",2.98945902250964,"Approved","OW406"
"2023-05-07 12:00",2.98845964432285,"Approved","OW406"
"2023-05-07 13:00",2.98846026613605,"Approved","OW406"
"2023-05-07 14:00",2.98746088794926,"Approved","OW406"
"2023-05-07 15:00",2.98746150976247,"Approved","OW406"
"2023-05-07 16:00",2.98646213157567,"Approved","OW406"
"2023-05-07 17:00",2.98646275338888,"Approved","OW406"
"2023-05-07 18:00",2.98546337520209,"Approved","OW406"
"2023-05-07 19:00",2.9854639970153,"Approved","OW406"
"2023-05-07 20:00",2.9834646188285,"Approved","OW406"
"2023-05-07 21:00",2.98346524064171,"Approved","OW406"
"2023-05-07 22:00",2.98346586245492,"Approved","OW406"
"2023-05-07 23:00",2.98146648426813,"Approved","OW406"
"2023-05-08 00:00",2.98146710608133,"Approved","OW406"
"2023-05-08 01:00",2.98046772789454,"Approved","OW406"
"2023-05-08 02:00",2.98046834970775,"Approved","OW406"
"2023-05-08 03:00",2.97946897152096,"Approved","OW406"
"2023-05-08 04:00",2.97946959333416,"Approved","OW406"
"2023-05-08 05:00",2.97947021514737,"Approved","OW406"
"2023-05-08 06:00",2.97847083696058,"Approved","OW406"
"2023-05-08 07:00",2.97747145877378,"Approved","OW406"
"2023-05-08 08:00",2.97747208058699,"Approved","OW406"
"2023-05-08 09:00",2.9764727024002,"Approved","OW406"
"2023-05-08 10:00",2.97647332421341,"Approved","OW406"
"2023-05-08 11:00",2.97547394602661,"Approved","OW406"
"2023-05-08 12:00",2.97547456783982,"Approved","OW406"
"2023-05-08 13:00",2.97447518965303,"Approved","OW406"
"2023-05-08 14:00",2.97347581146624,"Approved","OW406"
"2023-05-08 15:00",2.97347643327944,"Approved","OW406"
"2023-05-08 16:00",2.97247705509265,"Approved","OW406"
"2023-05-08 17:00",2.97247767690586,"Approved","OW406"
"2023-05-08 18:00",2.97047829871906,"Approved","OW406"
"2023-05-08 19:00",2.97047892053227,"Approved","OW406"
"2023-05-08 20:00",2.97047954234548,"Approved","OW406"
"2023-05-08 21:00",2.96948016415869,"Approved","OW406"
"2023-05-08 22:00",2.96848078597189,"Approved","OW406"
"2023-05-08 23:00",2.9684814077851,"Approved","OW406"
"2023-05-09 00:00",2.96748202959831,"Approved","OW406"
"2023-05-09 01:00",2.96748265141152,"Approved","OW406"
"2023-05-09 02:00",2.96748327322472,"Approved","OW406"
"2023-05-09 03:00",2.96648389503793,"Approved","OW406"
"2023-05-09 04:00",2.96648451685114,"Approved","OW406"
"2023-05-09 05:00",2.96648513866435,"Approved","OW406"
"2023-05-09 06:00",2.96648576047755,"Approved","OW406"
"2023-05-09 07:00",2.96648638229076,"Approved","OW406"
"2023-05-09 08:00",2.96548700410397,"Approved","OW406"
"2023-05-09 09:00",2.96548762591717,"Approved","OW406"
"2023-05-09 10:00",2.96548824773038,"Approved","OW406"
"2023-05-09 11:00",2.96448886954359,"Approved","OW406"
"2023-05-09 12:00",2.9644894913568,"Approved","OW406"
"2023-05-09 13:00",2.96449011317,"Approved","OW406"
"2023-05-09 14:00",2.96449073498321,"Approved","OW406"
"2023-05-09 15:00",2.96349135679642,"Approved","OW406"
"2023-05-09 16:00",2.96349197860963,"Approved","OW406"
"2023-05-09 17:00",2.96349260042283,"Approved","OW406"
"2023-05-09 18:00",2.96249322223604,"Approved","OW406"
"2023-05-09 19:00",2.96249384404925,"Approved","OW406"
"2023-05-09 20:00",2.96149446586245,"Approved","OW406"
"2023-05-09 21:00",2.96149508767566,"Approved","OW406"
"2023-05-09 22:00",2.96049570948887,"Approved","OW406"
"2023-05-09 23:00",2.96049633130208,"Approved","OW406"
"2023-05-10 00:00",2.95949695311528,"Approved","OW406"
"2023-05-10 01:00",2.95949757492849,"Approved","OW406"
"2023-05-10 02:00",2.9594981967417,"Approved","OW406"
"2023-05-10 03:00",2.95949881855491,"Approved","OW406"
"2023-05-10 04:00",2.95949944036811,"Approved","OW406"
"2023-05-10 05:00",2.95950006218132,"Approved","OW406"
"2023-05-10 06:00",2.95950068399453,"Approved","OW406"
"2023-05-10 07:00",2.95950130580774,"Approved","OW406"
"2023-05-10 08:00",2.95850192762094,"Approved","OW406"
"2023-05-10 09:00",2.95850254943415,"Approved","OW406"
"2023-05-10 10:00",2.95850317124736,"Approved","OW406"
"2023-05-10 11:00",2.95750379306056,"Approved","OW406"
"2023-05-10 12:00",2.95750441487377,"Approved","OW406"
"2023-05-10 13:00",2.95750503668698,"Approved","OW406"
"2023-05-10 14:00",2.95750565850019,"Approved","OW406"
"2023-05-10 15:00",2.95650628031339,"Approved","OW406"
"2023-05-10 16:00",2.9565069021266,"Approved","OW406"
"2023-05-10 17:00",2.95650752393981,"Approved","OW406"
"2023-05-10 18:00",2.95550814575302,"Approved","OW406"
"2023-05-10 19:00",2.95550876756622,"Approved","OW406"
"2023-05-10 20:00",2.95550938937943,"Approved","OW406"
"2023-05-10 21:00",2.95451001119264,"Approved","OW406"
"2023-05-10 22:00",2.95451063300585,"Approved","OW406"
"2023-05-10 23:00",2.95351125481905,"Approved","OW406"
"2023-05-11 00:00",2.95451187663226,"Approved","OW406"
"2023-05-11 01:00",2.95451249844547,"Approved","OW406"
"2023-05-11 02:00",2.95451312025867,"Approved","OW406"
"2023-05-11 03:00",2.95451374207188,"Approved","OW406"
"2023-05-11 04:00",2.95451436388509,"Approved","OW406"
"2023-05-11 05:00",2.9545149856983,"Approved","OW406"
"2023-05-11 06:00",2.9555156075115,"Approved","OW406"
"2023-05-11 07:00",2.95551622932471,"Approved","OW406"
"2023-05-11 08:00",2.95551685113792,"Approved","OW406"
"2023-05-11 09:00",2.95451747295113,"Approved","OW406"
"2023-05-11 10:00",2.95551809476433,"Approved","OW406"
"2023-05-11 11:00",2.95551871657754,"Approved","OW406"
"2023-05-11 12:00",2.95551933839075,"Approved","OW406"
"2023-05-11 13:00",2.95451996020395,"Approved","OW406"
"2023-05-11 14:00",2.95452058201716,"Approved","OW406"
"2023-05-11 15:00",2.95452120383037,"Approved","OW406"
"2023-05-11 16:00",2.95452182564358,"Approved","OW406"
"2023-05-11 17:00",2.95452244745678,"Approved","OW406"
"2023-05-11 18:00",2.95352306926999,"Approved","OW406"
"2023-05-11 19:00",2.9525236910832,"Approved","OW406"
"2023-05-11 20:00",2.95252431289641,"Approved","OW406"
"2023-05-11 21:00",2.95152493470961,"Approved","OW406"
"2023-05-11 22:00",2.95152555652282,"Approved","OW406"
"2023-05-11 23:00",2.95152617833603,"Approved","OW406"
"2023-05-12 00:00",2.95052680014924,"Approved","OW406"
"2023-05-12 01:00",2.95052742196244,"Approved","OW406"
"2023-05-12 02:00",2.95052804377565,"Approved","OW406"
"2023-05-12 03:00",2.95052866558886,"Approved","OW406"
"2023-05-12 04:00",2.95052928740206,"Approved","OW406"
"2023-05-12 05:00",2.95152990921527,"Approved","OW406"
"2023-05-12 06:00",2.95153053102848,"Approved","OW406"
"2023-05-12 07:00",2.95153115284169,"Approved","OW406"
"2023-05-12 08:00",2.95153177465489,"Approved","OW406"
"2023-05-12 09:00",2.9515323964681,"Approved","OW406"
"2023-05-12 10:00",2.95153301828131,"Approved","OW406"
"2023-05-12 11:00",2.95153364009452,"Approved","OW406"
"2023-05-12 12:00",2.95153426190772,"Approved","OW406"
"2023-05-12 13:00",2.95153488372093,"Approved","OW406"
"2023-05-12 14:00",2.95153550553414,"Approved","OW406"
"2023-05-12 15:00",2.95053612734735,"Approved","OW406"
"2023-05-12 16:00",2.95053674916055,"Approved","OW406"
"2023-05-12 17:00",2.95053737097376,"Approved","OW406"
"2023-05-12 18:00",2.95053799278697,"Approved","OW406"
"2023-05-12 19:00",2.94953861460017,"Approved","OW406"
"2023-05-12 20:00",2.95053923641338,"Approved","OW406"
"2023-05-12 21:00",2.95153985822659,"Approved","OW406"
"2023-05-12 22:00",2.9515404800398,"Approved","OW406"
"2023-05-12 23:00",2.952541101853,"Approved","OW406"
"2023-05-13 00:00",2.95254172366621,"Approved","OW406"
"2023-05-13 01:00",2.95354234547942,"Approved","OW406"
"2023-05-13 02:00",2.95454296729263,"Approved","OW406"
"2023-05-13 03:00",2.95554358910583,"Approved","OW406"
"2023-05-13 04:00",2.95554421091904,"Approved","OW406"
"2023-05-13 05:00",2.95554483273225,"Approved","OW406"
"2023-05-13 06:00",2.95554545454545,"Approved","OW406"
"2023-05-13 07:00",2.95554607635866,"Approved","OW406"
"2023-05-13 08:00",2.95454669817187,"Approved","OW406"
"2023-05-13 09:00",2.95454731998508,"Approved","OW406"
"2023-05-13 10:00",2.95454794179828,"Approved","OW406"
"2023-05-13 11:00",2.95354856361149,"Approved","OW406"
"2023-05-13 12:00",2.9535491854247,"Approved","OW406"
"2023-05-13 13:00",2.95354980723791,"Approved","OW406"
"2023-05-13 14:00",2.95455042905111,"Approved","OW406"
"2023-05-13 15:00",2.95555105086432,"Approved","OW406"
"2023-05-13 16:00",2.95655167267753,"Approved","OW406"
"2023-05-13 17:00",2.95655229449073,"Approved","OW406"
"2023-05-13 18:00",2.95755291630394,"Approved","OW406"
"2023-05-13 19:00",2.95755353811715,"Approved","OW406"
"2023-05-13 20:00",2.95755415993036,"Approved","OW406"
"2023-05-13 21:00",2.95755478174356,"Approved","OW406"
"2023-05-13 22:00",2.95855540355677,"Approved","OW406"
"2023-05-13 23:00",2.95755602536998,"Approved","OW406"
"2023-05-14 00:00",2.95755664718319,"Approved","OW406"
"2023-05-14 01:00",2.95555726899639,"Approved","OW406"
"2023-05-14 02:00",2.9555578908096,"Approved","OW406"
"2023-05-14 03:00",2.95655851262281,"Approved","OW406"
"2023-05-14 04:00",2.95655913443602,"Approved","OW406"
"2023-05-14 05:00",2.95655975624922,"Approved","OW406"
"2023-05-14 06:00",2.95756037806243,"Approved","OW406"
"2023-05-14 07:00",2.95756099987564,"Approved","OW406"
"2023-05-14 08:00",2.95856162168884,"Approved","OW406"
"2023-05-14 09:00",2.95756224350205,"Approved","OW406"
"2023-05-14 10:00",2.95756286531526,"Approved","OW406"
"2023-05-14 11:00",2.95756348712847,"Approved","OW406"
"2023-05-14 12:00",2.95856410894167,"Approved","OW406"
"2023-05-14 13:00",2.95856473075488,"Approved","OW406"
"2023-05-14 14:00",2.95856535256809,"Approved","OW406"
"2023-05-14 15:00",2.9585659743813,"Approved","OW406"
"2023-05-14 16:00",2.9575665961945,"Approved","OW406"
"2023-05-14 17:00",2.95856721800771,"Approved","OW406"
"2023-05-14 18:00",2.95756783982092,"Approved","OW406"
"2023-05-14 19:00",2.95756846163412,"Approved","OW406"
"2023-05-14 20:00",2.95656908344733,"Approved","OW406"
"2023-05-14 21:00",2.95656970526054,"Approved","OW406"
"2023-05-14 22:00",2.95757032707375,"Approved","OW406"
"2023-05-14 23:00",2.95657094888695,"Approved","OW406"
"2023-05-15 00:00",2.95757157070016,"Approved","OW406"
"2023-05-15 01:00",2.95757219251337,"Approved","OW406"
"2023-05-15 02:00",2.95757281432658,"Approved","OW406"
"2023-05-15 03:00",2.95857343613978,"Approved","OW406"
"2023-05-15 04:00",2.95957405795299,"Approved","OW406"
"2023-05-15 05:00",2.9605746797662,"Approved","OW406"
"2023-05-15 06:00",2.96157530157941,"Approved","OW406"
"2023-05-15 07:00",2.96157592339261,"Approved","OW406"
"2023-05-15 08:00",2.96257654520582,"Approved","OW406"
"2023-05-15 09:00",2.96257716701903,"Approved","OW406"
"2023-05-15 10:00",2.96257778883224,"Approved","OW406"
"2023-05-15 11:00",2.96257841064544,"Approved","OW406"
"2023-05-15 12:00",2.96257903245865,"Approved","OW406"
"2023-05-15 13:00",2.96357965427186,"Approved","OW406"
"2023-05-15 14:00",2.96358027608506,"Approved","OW406"
"2023-05-15 15:00",2.96358089789827,"Approved","OW406"
"2023-05-15 16:00",2.96458151971148,"Approved","OW406"
"2023-05-15 17:00",2.96658214152469,"Approved","OW406"
"2023-05-15 18:00",2.96758276333789,"Approved","OW406"
"2023-05-15 19:00",2.9675833851511,"Approved","OW406"
"2023-05-15 20:00",2.96958400696431,"Approved","OW406"
"2023-05-15 21:00",2.97058462877752,"Approved","OW406"
"2023-05-15 22:00",2.97058525059072,"Approved","OW406"
"2023-05-15 23:00",2.97158587240393,"Approved","OW406"
"2023-05-16 00:00",2.97358649421714,"Approved","OW406"
"2023-05-16 01:00",2.97458711603034,"Approved","OW406"
"2023-05-16 02:00",2.97558773784355,"Approved","OW406"
"2023-05-16 03:00",2.97858835965676,"Approved","OW406"
"2023-05-16 04:00",2.98058898146997,"Approved","OW406"
"2023-05-16 05:00",2.98258960328317,"Approved","OW406"
"2023-05-16 06:00",2.98359022509638,"Approved","OW406"
"2023-05-16 07:00",2.98559084690959,"Approved","OW406"
"2023-05-16 08:00",2.9885914687228,"Approved","OW406"
"2023-05-16 09:00",2.989592090536,"Approved","OW406"
"2023-05-16 10:00",2.99159271234921,"Approved","OW406"
"2023-05-16 11:00",2.99259333416242,"Approved","OW406"
"2023-05-16 12:00",2.99359395597562,"Approved","OW406"
"2023-05-16 13:00",2.99459457778883,"Approved","OW406"
"2023-05-16 14:00",2.99459519960204,"Approved","OW406"
"2023-05-16 15:00",2.99659582141525,"Approved","OW406"
"2023-05-16 16:00",2.99659644322845,"Approved","OW406"
"2023-05-16 17:00",2.99659706504166,"Approved","OW406"
"2023-05-16 18:00",2.99759768685487,"Approved","OW406"
"2023-05-16 19:00",2.99859830866808,"Approved","OW406"
"2023-05-16 20:00",2.99859893048128,"Approved","OW406"
"2023-05-16 21:00",2.99759955229449,"Approved","OW406"
"2023-05-16 22:00",2.9976001741077,"Approved","OW406"
"2023-05-16 23:00",2.99660079592091,"Approved","OW406"
"2023-05-17 00:00",2.99860141773411,"Approved","OW406"
"2023-05-17 01:00",2.99960203954732,"Approved","OW406"
"2023-05-17 02:00",3.00060266136053,"Approved","OW406"
"2023-05-17 03:00",3.00160328317373,"Approved","OW406"
"2023-05-17 04:00",3.00360390498694,"Approved","OW406"
"2023-05-17 05:00",3.00560452680015,"Approved","OW406"
"2023-05-17 06:00",3.00660514861336,"Approved","OW406"
"2023-05-17 07:00",3.00560577042656,"Approved","OW406"
"2023-05-17 08:00",3.00760639223977,"Approved","OW406"
"2023-05-17 09:00",3.00860701405298,"Approved","OW406"
"2023-05-17 10:00",3.00860763586619,"Approved","OW406"
"2023-05-17 11:00",3.00960825767939,"Approved","OW406"
"2023-05-17 12:00",3.0096088794926,"Approved","OW406"
"2023-05-17 13:00",3.01060950130581,"Approved","OW406"
"2023-05-17 14:00",3.01061012311901,"Approved","OW406"
"2023-05-17 15:00",3.00961074493222,"Approved","OW406"
"2023-05-17 16:00",3.00761136674543,"Approved","OW406"
"2023-05-17 17:00",3.00861198855864,"Approved","OW406"
"2023-05-17 18:00",3.00861261037184,"Approved","OW406"
"2023-05-17 19:00",3.00961323218505,"Approved","OW406"
"2023-05-17 20:00",3.01061385399826,"Approved","OW406"
"2023-05-17 21:00",3.01061447581147,"Approved","OW406"
"2023-05-17 22:00",3.01161509762467,"Approved","OW406"
"2023-05-17 23:00",3.01261571943788,"Approved","OW406"
"2023-05-18 00:00",3.01261634125109,"Approved","OW406"
"2023-05-18 01:00",3.0126169630643,"Approved","OW406"
"2023-05-18 02:00",3.0136175848775,"Approved","OW406"
"2023-05-18 03:00",3.01461820669071,"Approved","OW406"
"2023-05-18 04:00",3.01561882850392,"Approved","OW406"
"2023-05-18 05:00",3.01661945031712,"Approved","OW406"
"2023-05-18 06:00",3.01762007213033,"Approved","OW406"
"2023-05-18 07:00",3.01862069394354,"Approved","OW406"
"2023-05-18 08:00",3.01962131575675,"Approved","OW406"
"2023-05-18 09:00",3.02062193756995,"Approved","OW406"
"2023-05-18 10:00",3.02062255938316,"Approved","OW406"
"2023-05-18 11:00",3.02162318119637,"Approved","OW406"
"2023-05-18 12:00",3.02162380300958,"Approved","OW406"
"2023-05-18 13:00",3.02262442482278,"Approved","OW406"
"2023-05-18 14:00",3.02362504663599,"Approved","OW406"
"2023-05-18 15:00",3.0246256684492,"Approved","OW406"
"2023-05-18 16:00",3.02362629026241,"Approved","OW406"
"2023-05-18 17:00",3.02462691207561,"Approved","OW406"
"2023-05-18 18:00",3.02562753388882,"Approved","OW406"
"2023-05-18 19:00",3.02662815570203,"Approved","OW406"
"2023-05-18 20:00",3.02562877751523,"Approved","OW406"
"2023-05-18 21:00",3.02762939932844,"Approved","OW406"
"2023-05-18 22:00",3.02863002114165,"Approved","OW406"
"2023-05-18 23:00",3.02963064295486,"Approved","OW406"
"2023-05-19 00:00",3.02963126476806,"Approved","OW406"
"2023-05-19 01:00",3.03163188658127,"Approved","OW406"
"2023-05-19 02:00",3.03263250839448,"Approved","OW406"
"2023-05-19 03:00",3.03363313020769,"Approved","OW406"
"2023-05-19 04:00",3.03463375202089,"Approved","OW406"
"2023-05-19 05:00",3.0356343738341,"Approved","OW406"
"2023-05-19 06:00",3.03663499564731,"Approved","OW406"
"2023-05-19 07:00",3.03763561746051,"Approved","OW406"
"2023-05-19 08:00",3.03863623927372,"Approved","OW406"
"2023-05-19 09:00",3.03863686108693,"Approved","OW406"
"2023-05-19 10:00",3.03963748290014,"Approved","OW406"
"2023-05-19 11:00",3.04063810471334,"Approved","OW406"
"2023-05-19 12:00",3.04163872652655,"Approved","OW406"
"2023-05-19 13:00",3.04263934833976,"Approved","OW406"
"2023-05-19 14:00",3.04363997015297,"Approved","OW406"
"2023-05-19 15:00",3.04364059196617,"Approved","OW406"
"2023-05-19 16:00",3.04364121377938,"Approved","OW406"
"2023-05-19 17:00",3.04464183559259,"Approved","OW406"
"2023-05-19 18:00",3.0436424574058,"Approved","OW406"
"2023-05-19 19:00",3.043643079219,"Approved","OW406"
"2023-05-19 20:00",3.04264370103221,"Approved","OW406"
"2023-05-19 21:00",3.04264432284542,"Approved","OW406"
"2023-05-19 22:00",3.04264494465862,"Approved","OW406"
"2023-05-19 23:00",3.04164556647183,"Approved","OW406"
"2023-05-20 00:00",3.04164618828504,"Approved","OW406"
"2023-05-20 01:00",3.04364681009825,"Approved","OW406"
"2023-05-20 02:00",3.04464743191145,"Approved","OW406"
"2023-05-20 03:00",3.04664805372466,"Approved","OW406"
"2023-05-20 04:00",3.04764867553787,"Approved","OW406"
"2023-05-20 05:00",3.04964929735108,"Approved","OW406"
"2023-05-20 06:00",3.05064991916428,"Approved","OW406"
"2023-05-20 07:00",3.05065054097749,"Approved","OW406"
"2023-05-20 08:00",3.0516511627907,"Approved","OW406"
"2023-05-20 09:00",3.05165178460391,"Approved","OW406"
"2023-05-20 10:00",3.05265240641711,"Approved","OW406"
"2023-05-20 11:00",3.05265302823032,"Approved","OW406"
"2023-05-20 12:00",3.05365365004353,"Approved","OW406"
"2023-05-20 13:00",3.05465427185673,"Approved","OW406"
"2023-05-20 14:00",3.05565489366994,"Approved","OW406"
"2023-05-20 15:00",3.05665551548315,"Approved","OW406"
"2023-05-20 16:00",3.05565613729636,"Approved","OW406"
"2023-05-20 17:00",3.05465675910956,"Approved","OW406"
"2023-05-20 18:00",3.05465738092277,"Approved","OW406"
"2023-05-20 19:00",3.05565800273598,"Approved","OW406"
"2023-05-20 20:00",3.05665862454919,"Approved","OW406"
"2023-05-20 21:00",3.05665924636239,"Approved","OW406"
"2023-05-20 22:00",3.0576598681756,"Approved","OW406"
"2023-05-20 23:00",3.05666048998881,"Approved","OW406"
"2023-05-21 00:00",3.05666111180201,"Approved","OW406"
"2023-05-21 01:00",3.05566173361522,"Approved","OW406"
"2023-05-21 02:00",3.05666235542843,"Approved","OW406"
"2023-05-21 03:00",3.05666297724164,"Approved","OW406"
"2023-05-21 04:00",3.05666359905484,"Approved","OW406"
"2023-05-21 05:00",3.05766422086805,"Approved","OW406"
"2023-05-21 06:00",3.05766484268126,"Approved","OW406"
"2023-05-21 07:00",3.05766546449447,"Approved","OW406"
"2023-05-21 08:00",3.05866608630767,"Approved","OW406"
"2023-05-21 09:00",3.05866670812088,"Approved","OW406"
"2023-05-21 10:00",3.05866732993409,"Approved","OW406"
"2023-05-21 11:00",3.0596679517473,"Approved","OW406"
"2023-05-21 12:00",3.0586685735605,"Approved","OW406"
"2023-05-21 13:00",3.05866919537371,"Approved","OW406"
"2023-05-21 14:00",3.05866981718692,"Approved","OW406"
"2023-05-21 15:00",3.05967043900012,"Approved","OW406"
"2023-05-21 16:00",3.05967106081333,"Approved","OW406"
"2023-05-21 17:00",3.05867168262654,"Approved","OW406"
"2023-05-21 18:00",3.05967230443975,"Approved","OW406"
"2023-05-21 19:00",3.05967292625295,"Approved","OW406"
"2023-05-21 20:00",3.05867354806616,"Approved","OW406"
"2023-05-21 21:00",3.05967416987937,"Approved","OW406"
"2023-05-21 22:00",3.05867479169258,"Approved","OW406"
"2023-05-21 23:00",3.05967541350578,"Approved","OW406"
"2023-05-22 00:00",3.05967603531899,"Approved","OW406"
"2023-05-22 01:00",3.0596766571322,"Approved","OW406"
"2023-05-22 02:00",3.0596772789454,"Approved","OW406"
"2023-05-22 03:00",3.05967790075861,"Approved","OW406"
"2023-05-22 04:00",3.06067852257182,"Approved","OW406"
"2023-05-22 05:00",3.05967914438503,"Approved","OW406"
"2023-05-22 06:00",3.06067976619823,"Approved","OW406"
"2023-05-22 07:00",3.06068038801144,"Approved","OW406"
"2023-05-22 08:00",3.05968100982465,"Approved","OW406"
"2023-05-22 09:00",3.05968163163786,"Approved","OW406"
"2023-05-22 10:00",3.05968225345106,"Approved","OW406"
"2023-05-22 11:00",3.05868287526427,"Approved","OW406"
"2023-05-22 12:00",3.05868349707748,"Approved","OW406"
"2023-05-22 13:00",3.05868411889069,"Approved","OW406"
"2023-05-22 14:00",3.05968474070389,"Approved","OW406"
"2023-05-22 15:00",3.0596853625171,"Approved","OW406"
"2023-05-22 16:00",3.05968598433031,"Approved","OW406"
"2023-05-22 17:00",3.05968660614351,"Approved","OW406"
"2023-05-22 18:00",3.05968722795672,"Approved","OW406"
"2023-05-22 19:00",3.05768784976993,"Approved","OW406"
"2023-05-22 20:00",3.05468847158314,"Approved","OW406"
"2023-05-22 21:00",3.05168909339634,"Approved","OW406"
"2023-05-22 22:00",3.04968971520955,"Approved","OW406"
"2023-05-22 23:00",3.04769033702276,"Approved","OW406"
"2023-05-23 00:00",3.04669095883597,"Approved","OW406"
"2023-05-23 01:00",3.04569158064917,"Approved","OW406"
"2023-05-23 02:00",3.04469220246238,"Approved","OW406"
"2023-05-23 03:00",3.04369282427559,"Approved","OW406"
"2023-05-23 04:00",3.04369344608879,"Approved","OW406"
"2023-05-23 05:00",3.042694067902,"Approved","OW406"
"2023-05-23 06:00",3.04269468971521,"Approved","OW406"
"2023-05-23 07:00",3.04269531152842,"Approved","OW406"
"2023-05-23 08:00",3.04169593334162,"Approved","OW406"
"2023-05-23 09:00",3.04169655515483,"Approved","OW406"
"2023-05-23 10:00",3.04069717696804,"Approved","OW406"
"2023-05-23 11:00",3.04069779878125,"Approved","OW406"
"2023-05-23 12:00",3.03969842059445,"Approved","OW406"
"2023-05-23 13:00",3.03869904240766,"Approved","OW406"
"2023-05-23 14:00",3.03869966422087,"Approved","OW406"
"2023-05-23 15:00",3.03870028603408,"Approved","OW406"
"2023-05-23 16:00",3.03770090784728,"Approved","OW406"
"2023-05-23 17:00",3.03670152966049,"Approved","OW406"
"2023-05-23 18:00",3.0357021514737,"Approved","OW406"
"2023-05-23 19:00",3.0357027732869,"Approved","OW406"